Flag for Colombia Weather past 2 weeks in Ibagué, Colombia

Now
50 °F

Passing clouds.


Feels Like: 50 °F
Forecast: 55 / 72 °F
Wind: 2 mph from North

Location: Bogota / Eldorado

Current Time: Aug 27, 2014 at 4:11:40 AM

Latest Report: Aug 27, 2014 at 3:00 AM


Visibility: N/A

Pressure: 30.32 "Hg

Humidity: 88%

Dew point: 46 °F

Location of IbaguéLocation

Historic Weather in Ibagué — Graph

°F

Ibagué temperature yesterday

Maximum temperature yesterday: 63 °F (at 11:00 AM)
Minimum temperature yesterday: 48 °F (at 4:00 AM)
Average temperature yesterday: 55 °F

Past Weeks' High & Low Weather Summary

 TemperatureHumidityPressure
High68 °F (Aug 22, 11:00 AM)100% (Aug 17, 4:00 AM)30.41 "Hg (Aug 17, 4:00 AM)
Low45 °F (Aug 20, 12:00 AM)40% (Aug 23, 11:00 AM)30.20 "Hg (Aug 25, 4:00 PM)
Average57 °F72%30.33 "Hg
* Reported Aug 12 3:00 AM — Aug 27 3:00 AM, Ibagué, Weather by CustomWeather, © 2014

Note: Actual official high and low records may vary slightly from our data, if they occured in-between our weather recording intervals... More about our weather records

Advertising

Ibagué weather history for previous 24 hours

 ConditionsComfort  
Time TempWeatherWind HumidityBarometerVisibility
3:00 AM
Aug 27
50 °FPassing clouds.2 mph88%30.32 "HgN/A
2:00 AM50 °FPartly cloudy.6 mph88%30.33 "HgN/A
1:00 AM50 °FPartly cloudy.5 mph88%30.35 "HgN/A
12:00 AM52 °FPartly cloudy.6 mph88%30.37 "HgN/A
11:00 PM
Aug 26
52 °FPassing clouds.2 mph88%30.38 "HgN/A
10:00 PM54 °FPassing clouds.2 mph77%30.36 "HgN/A
9:00 PM54 °FPassing clouds.7 mph77%30.34 "HgN/A
8:00 PM55 °FPassing clouds.6 mph72%30.32 "HgN/A
7:00 PM55 °FPassing clouds.8 mph67%30.29 "HgN/A
6:00 PM55 °FScattered clouds.8 mph72%30.30 "HgN/A
5:00 PM57 °FDrizzle. Partly sunny.14 mph72%30.28 "HgN/A
4:00 PM59 °FScattered showers. Partly sunny.14 mph68%30.26 "HgN/A
3:00 PM61 °FScattered showers. Partly sunny.8 mph72%30.27 "HgN/A
2:05 PM55 °FRain. Partly sunny.10 mph94%30.30 "Hg2 mi
2:00 PM57 °FDrizzle. Partly sunny.9 mph82%30.30 "Hg5 mi
1:00 PM63 °FScattered showers. Partly sunny.12 mph56%30.30 "HgN/A
12:00 PM63 °FScattered clouds.7 mph56%30.33 "HgN/A
11:00 AM63 °FScattered showers. Partly sunny.12 mph52%30.35 "HgN/A
10:00 AM61 °FScattered showers. Scattered clouds.10 mph59%30.36 "HgN/A
9:00 AM59 °FScattered showers. Partly sunny.12 mph63%30.36 "HgN/A
8:00 AM55 °FScattered clouds.2 mph82%30.35 "HgN/A
7:00 AM52 °FScattered showers. Scattered clouds.10 mph88%30.33 "HgN/A
6:00 AM50 °FPassing clouds.8 mph88%30.31 "HgN/A
5:00 AM50 °FPassing clouds.5 mph94%30.30 "HgN/A
4:00 AM48 °FPassing clouds.2 mph100%30.30 "HgN/A
Weather by CustomWeather, © 2014

See weather overviewHow to use our weather pages